• In Romania
  • List of Countries
  • For 7 days
  • Water Temperature
  • Satellite Maps
  • Weather Map
  • Weather Widgets
  • user-avatar
    Login

    Hourly Weather Kitzbuhel

    Today, 26 June, Monday

    Time Temperature Precipitation Wind Pressure Humidity
    00:00 +12°C° 0 mm 2 mps 677 mmHg 91%
    01:00 +12°C° 0 mm 2 mps 677 mmHg 91%
    02:00 +12°C° 0 mm 2 mps 677 mmHg 90%
    03:00 +12°C° 0 mm 2 mps 677 mmHg 89%
    04:00 +12°C° 0 mm 2 mps 677 mmHg 88%
    05:00 +14°C° 0 mm 1 mps 677 mmHg 84%
    06:00 +15°C° 0 mm 1 mps 677 mmHg 81%
    07:00 +19°C° 0 mm 1 mps 678 mmHg 76%
    08:00 +21°C° 0 mm 1 mps 678 mmHg 68%
    09:00 +22°C° 0 mm 1 mps 678 mmHg 61%
    10:00 +24°C° 0 mm 1 mps 678 mmHg 54%
    11:00 +25°C° 0 mm 1 mps 678 mmHg 52%
    12:00 +26°C° 0 mm 1 mps 678 mmHg 51%
    13:00 +27°C° 0 mm 1 mps 678 mmHg 49%
    14:00 +27°C° 0.1 mm 1 mps 678 mmHg 52%
    15:00 +26°C° 0.1 mm 1 mps 677 mmHg 55%
    16:00 +26°C° 0.1 mm 1 mps 677 mmHg 58%
    17:00 +25°C° 0.3 mm 1 mps 677 mmHg 66%
    18:00 +23°C° 0.3 mm 1 mps 676 mmHg 75%
    19:00 +22°C° 0.3 mm 1 mps 676 mmHg 84%
    20:00 +20°C° 0.2 mm 1 mps 676 mmHg 86%
    21:00 +19°C° 0.2 mm 1 mps 676 mmHg 88%
    22:00 +16°C° 0.2 mm 2 mps 675 mmHg 90%
    23:00 +16°C° 0.4 mm 2 mps 675 mmHg 91%

    Tomorrow, 27 June, Tuesday

    Time Temperature Precipitation Wind Pressure Humidity
    00:00 +16°C° 0.4 mm 2 mps 675 mmHg 92%
    01:00 +16°C° 0.4 mm 2 mps 676 mmHg 92%
    02:00 +16°C° 0.5 mm 2 mps 675 mmHg 93%
    03:00 +15°C° 0.5 mm 1 mps 675 mmHg 93%
    04:00 +15°C° 0.5 mm 1 mps 675 mmHg 94%
    05:00 +16°C° 0.1 mm 1 mps 675 mmHg 92%
    06:00 +18°C° 0.1 mm 1 mps 675 mmHg 89%
    07:00 +19°C° 0.1 mm 1 mps 675 mmHg 87%
    08:00 +21°C° 0.2 mm 1 mps 676 mmHg 81%
    09:00 +22°C° 0.2 mm 1 mps 676 mmHg 74%
    10:00 +23°C° 0.2 mm 1 mps 676 mmHg 68%
    11:00 +24°C° 0.7 mm 1 mps 676 mmHg 69%
    12:00 +24°C° 0.7 mm 1 mps 675 mmHg 70%
    13:00 +25°C° 0.7 mm 2 mps 675 mmHg 72%
    14:00 +24°C° 1.1 mm 2 mps 675 mmHg 73%
    15:00 +24°C° 1.1 mm 1 mps 675 mmHg 75%
    16:00 +24°C° 1.1 mm 1 mps 674 mmHg 76%
    17:00 +23°C° 0.8 mm 1 mps 674 mmHg 81%
    18:00 +23°C° 0.8 mm 1 mps 674 mmHg 85%
    19:00 +22°C° 0.8 mm 1 mps 674 mmHg 89%
    20:00 +20°C° 0.4 mm 1 mps 673 mmHg 90%
    21:00 +19°C° 0.4 mm 1 mps 673 mmHg 91%
    22:00 +16°C° 0.4 mm 2 mps 673 mmHg 92%
    23:00 +16°C° 0 mm 2 mps 672 mmHg 92%

    Day after tomorrow, 28 June, Wednesday

    Time Temperature Precipitation Wind Pressure Humidity
    00:00 +16°C° 0 mm 2 mps 672 mmHg 92%
    01:00 +15°C° 0 mm 2 mps 672 mmHg 92%
    02:00 +15°C° 0 mm 2 mps 671 mmHg 91%
    03:00 +15°C° 0 mm 2 mps 671 mmHg 91%
    04:00 +14°C° 0 mm 3 mps 670 mmHg 90%
    05:00 +16°C° 0 mm 3 mps 670 mmHg 89%
    06:00 +17°C° 0 mm 3 mps 670 mmHg 87%
    07:00 +18°C° 0 mm 3 mps 670 mmHg 86%
    08:00 +20°C° 0.1 mm 3 mps 670 mmHg 77%
    09:00 +22°C° 0.1 mm 3 mps 671 mmHg 69%
    10:00 +25°C° 0.1 mm 3 mps 671 mmHg 61%
    11:00 +25°C° 0.7 mm 3 mps 671 mmHg 63%
    12:00 +25°C° 0.7 mm 3 mps 670 mmHg 66%
    13:00 +25°C° 0.7 mm 3 mps 670 mmHg 69%
    14:00 +24°C° 1.1 mm 3 mps 670 mmHg 71%
    15:00 +22°C° 1.1 mm 3 mps 669 mmHg 74%
    16:00 +23°C° 1.1 mm 2 mps 669 mmHg 77%
    17:00 +21°C° 1.2 mm 2 mps 668 mmHg 82%
    18:00 +20°C° 1.2 mm 2 mps 668 mmHg 87%
    19:00 +19°C° 1.2 mm 2 mps 667 mmHg 91%
    20:00 +18°C° 1.1 mm 2 mps 667 mmHg 93%
    21:00 +17°C° 1.1 mm 2 mps 666 mmHg 94%
    22:00 +16°C° 1.1 mm 2 mps 666 mmHg 95%
    23:00 +15°C° 0.2 mm 2 mps 665 mmHg 94%

    29 June, Thursday

    Time Temperature Precipitation Wind Pressure Humidity
    00:00 +15°C° 0.2 mm 2 mps 665 mmHg 94%
    01:00 +14°C° 0.2 mm 2 mps 664 mmHg 93%
    02:00 +14°C° 0.3 mm 2 mps 664 mmHg 94%
    03:00 +13°C° 0.3 mm 2 mps 664 mmHg 94%
    04:00 +12°C° 0.3 mm 2 mps 663 mmHg 95%
    05:00 +13°C° 0.3 mm 2 mps 664 mmHg 94%
    06:00 +14°C° 0.3 mm 2 mps 665 mmHg 92%
    07:00 +15°C° 0.3 mm 2 mps 665 mmHg 91%
    08:00 +14°C° 0.5 mm 3 mps 666 mmHg 88%
    09:00 +16°C° 0.5 mm 3 mps 666 mmHg 84%
    10:00 +17°C° 0.5 mm 3 mps 667 mmHg 80%
    11:00 +17°C° 1.2 mm 3 mps 667 mmHg 81%
    12:00 +17°C° 1.2 mm 3 mps 667 mmHg 81%
    13:00 +17°C° 1.2 mm 3 mps 668 mmHg 82%
    14:00 +16°C° 1.4 mm 3 mps 668 mmHg 84%
    15:00 +16°C° 1.4 mm 2 mps 668 mmHg 87%
    16:00 +15°C° 1.4 mm 2 mps 668 mmHg 89%
    17:00 +15°C° 1.5 mm 2 mps 669 mmHg 92%
    18:00 +14°C° 1.5 mm 1 mps 669 mmHg 94%
    19:00 +13°C° 1.5 mm 1 mps 669 mmHg 96%
    20:00 +12°C° 0.8 mm 1 mps 670 mmHg 96%
    21:00 +12°C° 0.8 mm 2 mps 670 mmHg 95%
    22:00 +10°C° 0.8 mm 2 mps 671 mmHg 95%
    23:00 +10°C° 0.2 mm 2 mps 671 mmHg 93%

    30 June, Friday

    Time Temperature Precipitation Wind Pressure Humidity
    00:00 +9°C° 0.2 mm 2 mps 671 mmHg 92%
    01:00 +9°C° 0.2 mm 2 mps 671 mmHg 90%
    02:00 +9°C° 0 mm 2 mps 671 mmHg 89%
    03:00 +8°C° 0 mm 2 mps 671 mmHg 88%
    04:00 +9°C° 0 mm 1 mps 671 mmHg 86%
    05:00 +10°C° 0 mm 1 mps 672 mmHg 84%
    06:00 +12°C° 0 mm 1 mps 672 mmHg 82%
    07:00 +13°C° 0 mm 1 mps 673 mmHg 80%
    08:00 +15°C° 0.1 mm 2 mps 673 mmHg 75%
    09:00 +16°C° 0.1 mm 2 mps 674 mmHg 69%
    10:00 +17°C° 0.1 mm 2 mps 674 mmHg 63%
    11:00 +18°C° 0.3 mm 3 mps 674 mmHg 65%
    12:00 +18°C° 0.3 mm 3 mps 674 mmHg 66%
    13:00 +18°C° 0.3 mm 3 mps 674 mmHg 68%
    14:00 +18°C° 1 mm 3 mps 674 mmHg 71%
    15:00 +17°C° 1 mm 3 mps 674 mmHg 75%
    16:00 +17°C° 1 mm 3 mps 674 mmHg 79%
    17:00 +16°C° 0.6 mm 2 mps 674 mmHg 83%
    18:00 +15°C° 0.6 mm 2 mps 674 mmHg 87%
    19:00 +14°C° 0.6 mm 2 mps 674 mmHg 90%
    20:00 +13°C° 0.3 mm 2 mps 675 mmHg 91%
    21:00 +12°C° 0.3 mm 1 mps 675 mmHg 93%
    22:00 +11°C° 0.3 mm 1 mps 675 mmHg 94%
    23:00 +11°C° 0.1 mm 1 mps 675 mmHg 93%

    1 July, Saturday

    Time Temperature Precipitation Wind Pressure Humidity
    00:00 +11°C° 0.1 mm 1 mps 675 mmHg 93%
    01:00 +10°C° 0.1 mm 1 mps 675 mmHg 92%
    02:00 +10°C° 0 mm 1 mps 675 mmHg 91%
    03:00 +10°C° 0 mm 1 mps 674 mmHg 91%
    04:00 +10°C° 0 mm 1 mps 674 mmHg 90%
    05:00 +12°C° 0.2 mm 1 mps 675 mmHg 89%
    06:00 +13°C° 0.2 mm 1 mps 675 mmHg 87%
    07:00 +14°C° 0.2 mm 1 mps 675 mmHg 85%
    08:00 +14°C° 0.6 mm 1 mps 675 mmHg 84%
    09:00 +14°C° 0.6 mm 1 mps 675 mmHg 82%
    10:00 +15°C° 0.6 mm 1 mps 675 mmHg 81%
    11:00 +15°C° 0.8 mm 1 mps 675 mmHg 82%
    12:00 +15°C° 0.8 mm 1 mps 675 mmHg 82%
    13:00 +15°C° 0.8 mm 1 mps 675 mmHg 83%
    14:00 +15°C° 0.5 mm 1 mps 675 mmHg 84%
    15:00 +15°C° 0.5 mm 2 mps 675 mmHg 85%
    16:00 +15°C° 0.5 mm 2 mps 676 mmHg 87%
    17:00 +14°C° 0.8 mm 2 mps 676 mmHg 90%
    18:00 +14°C° 0.8 mm 2 mps 676 mmHg 93%
    19:00 +13°C° 0.8 mm 2 mps 676 mmHg 96%
    20:00 +12°C° 1.1 mm 2 mps 677 mmHg 96%
    21:00 +12°C° 1.1 mm 2 mps 677 mmHg 97%
    22:00 +10°C° 1.1 mm 2 mps 678 mmHg 98%
    23:00 +10°C° 0.4 mm 2 mps 678 mmHg 98%
    Show more